STARLINK-11354, 61532

Orbit data source: Space-Track

STARLINK-11354, 61532 is a payload satellite owned by SpaceX/Seattle (US) in LEO that was launched on Tue, 15 Oct 2024 UTC via an FALCON 9 launch vehicle from the Air Force Western Test Range (AFWTR). Payload-class satellites include a variety of spacecraft equipped with specific instruments for various scientific and technological missions. These include communications satellites like Starlink; space stations such as the ISS; scientific satellites like the Hubble; Earth observation satellites from companies like Planet Labs, Umbra, and HawkEye 360; GPS; miniature CubeSats for education and research; and military/defense satellites.

Loading next visibility...
Identifier
61532, 2024-184A
Orbit
LEO
Country
Flag of USUS
Related business
Manufacturer
SpaceX/Seattle
Mission
Operational Commercial Communications
Bus & Motor
STARLINK V2MD, Unknown motor
Mass
960 kg wet, ~910 kg dry
Launch date (UTC)
2024-10-15 (2 years ago)
Launch vehicle
FALCON 9
Launch site
Air Force Western Test Range (AFWTR)
Object type
Payload
Rocket body
Debris
Shape & HBR
Box + 2 Pan, 18.1 m
Radar Cross Section
36.964 m², Large (>1 m²)

Expand to show TLE details & history
Last TLE update: 18 hours ago

TLE from 18 hours ago
0 STARLINK-11354
1 61532U 24184A   26171.11768358 -.00000238  00000-0  28938-5 0  9991
2 61532  53.1601  91.4131 0001258 144.4962 215.6140 15.69703863 96507
Epoch: 2026-06-20T02:49Z
TLE epoch observation values (Epoch: 2026-06-20T02:49:27.861Z)
Latitude
Longitude
140.71011°
Altitude
361.348 km
Speed
7.693 km/s
True Right ascension
06h 05m 39s
True Declination
0° 00' 00"
Sunlit
Object was in daylight at epoch
Visualization orbit readout
Latitude
Unknown
Longitude
Unknown
Altitude
Unknown
Speed
Unknown
Apparent Right ascension
Unknown
Apparent Declination
Unknown
Sunlit
N/A
Visualization observer readout
Local Sidereal Time
07:17:09
Azimuth
Unknown
Elevation
Unknown
Doppler factor
Unknown
Orbital elements
Apogee altitude
360.853 km
Perigee altitude
359.157 km
Semi-major axis
6,738.142 km
Eccentricity
0.00013
Inclination
53.1601°
RAAN
91.4131°
Arg. of periapsis
144.4962°
True anomaly
215.60561°
Mean anomaly
215.614°
Eccentric anomaly
215.6098°
Mean motion
3.92404 °/min
Orbital period
91.74 mins
BSTAR
0.0000028938
Loading maneuver chart data...
Computing Atmospheric mass density...
Loading historical data...
Loading historical data...
Loading historical data...
Loading historical data...
Loading historical data...
Loading historical data...
Loading historical data...

Documentation

Showing up to 5 results
|